Regional Weather Roundup
Issued by NWS

Home | Current Version | Previous Version | Graphics & Text | Print | Product List | Glossary On
Versions: 1 2 3 4 5 6 7 8 9 10 11 12 13 14 15 16 17 18 19 20 21 22 23 24 25 26 27 28 29 30 31 32 33 34 35 36 37 38 39 40 41 42 43 44 45 46 47 48 49 50
012
ASUS44 KLIX 170701
RWRLA
LOUISIANA WEATHER ROUNDUP
NATIONAL WEATHER SERVICE NEW ORLEANS LA
200 AM CDT THU APR 17 2014

NOTE: "FAIR" INDICATES FEW OR NO CLOUDS BELOW 12,000 FEET WITH NO
      SIGNIFICANT WEATHER AND/OR OBSTRUCTIONS TO VISIBILITY.
      SKY/WX - SKY CONDITION AND SIGNIFICANT WEATHER.
      TMP - AIR TEMPERATURE.    DP   - DEWPOINT TEMPERATURE.
      RH  - RELATIVE HUMIDITY.  PRES - PRESSURE.
      HX  - HEAT INDEX.         WCI  - WIND CHILL INDEX.

*  THESE STATIONS ARE NOT NWS OR FAA STATIONS AND ARE NOT UNDER
   NWS QUALITY CONTROL.

LAZ040-048-061>063-065-066-069-170800-
SOUTHEAST LOUISIANA

CITY           SKY/WX    TMP DP  RH WIND       PRES   REMARKS
N.O. AUDUBON     N/A     54  46  74 MISG        N/A
N.O. INTL ARPT PTCLDY    51  47  86 CALM      30.14F
N.O. LAKEFRONT MOCLDY    56  50  80 SE5       30.14F
N.O. DOWNTOWN* CLOUDY    57  45  62 CALM      30.14F
SLIDELL        PTCLDY    46  43  89 CALM      30.15S
BATON ROUGE    PTCLDY    48  43  82 E3        30.14F
BOOTHVILLE     CLOUDY    60  52  74 SE5       30.14S
BELLE CHASSE   CLOUDY    51  48  89 CALM      30.12F
BOGALUSA*        N/A     44  41  89 CALM      30.18S
GALLIANO*      NOT AVBL
NEW ROADS*     NOT AVBL
GONZALES*      FAIR      46  46 100 CALM      30.13F
HAMMOND*       NOT AVBL
HOUMA*         NOT AVBL
PORT FOURCHON* CLOUDY    63  50  63 SE13G20   30.13F

$$

LAZ041-044-053-054-170800-
SOUTHWEST LOUISIANA

CITY           SKY/WX    TMP DP  RH WIND       PRES   REMARKS
LAKE CHARLES   MOCLDY    53  49  86 E7        30.11R
LAFAYETTE      MOCLDY    51  49  92 CALM      30.12F
PATTERSON      MOCLDY    52  46  82 E6          N/A
SALT POINT       N/A     55  48  77 VRB3      30.10F
NEW IBERIA     MOCLDY    52  47  83 E9        30.12F
CHENAULT AIRPK NOT AVBL

$$

LAZ027-028-170800-
CENTRAL LOUISIANA

CITY           SKY/WX    TMP DP  RH WIND       PRES   REMARKS
FORT POLK      MOCLDY    48  45  89 CALM      30.13R
ALEXANDRIA INT PTCLDY    50  45  83 SE3       30.13R
ALEXANDRIA     PTCLDY    43  40  89 CALM      30.15

$$

LAZ001-002-170800-
NORTHWEST LOUISIANA

CITY           SKY/WX    TMP DP  RH WIND       PRES   REMARKS
SHREVEPORT     CLEAR     47  40  76 CALM      30.12S
BARKSDALE AFB  NOT AVBL
DTN SHREVEPORT CLEAR     45  39  79 CALM      30.13S

$$

LAZ014-016-170800-
NORTHEAST LOUISIANA

CITY           SKY/WX    TMP DP  RH WIND       PRES   REMARKS
MONROE         CLEAR     44  41  89 CALM      30.17R
TALLULAH       CLEAR     50  44  80 SE5       30.17S

$$




USA.gov is the U.S. government's official web portal to all federal, state and local government web resources and services.